Location: ??
(35.5052°N, 139.7262°E)
Time: 06:46:46
(UTC+00:00)

Envisat - Pass Details

Date: 01 October 2021
Orbit: 764 x 766 km, 98.2° (Epoch: 23 October)

Event Time Altitude Azimuth Distance (km) Brightness Sun altitude
Rises 18:39:03 0° 32° (NNE) 3,234 6.9 -24.5°
Reaches altitude 10° 18:42:09 10° 52° (NE) 2,303 6.3 -23.9°
Maximum altitude 18:45:28 17° 93° (E) 1,836 5.8 -23.3°
Drops below altitude 10° 18:48:47 10° 134° (SE) 2,293 5.9 -22.6°
Sets 18:51:50 0° 154° (SSE) 3,213 6.4 -22.0°
